Location: Armidale
(30.5016°S, 151.6662°E)
Time: 01:42:53
(UTC+10:00)

Hubble Space Telescope - Pass Details

Date: 12 August 2020
Orbit: 536 x 540 km, 28.5° (Epoch: 28 September)

Event Time Altitude Azimuth Distance (km) Brightness Sun altitude
Rises 19:33:59 0° 269° (W) 2,685 5.6 -27.8°
Reaches altitude 10° 19:36:26 10° 280° (W) 1,791 4.4 -28.4°
Enters shadow 19:38:59 26° 312° (NW) 1,079 2.7 -28.9°
